Weather in Novoselovka

Russia / Rostov Oblast     49°15′20″N   40°21′58″E
temp.,
°C
wind,
m/s
gust,
m/s
humid.,
%
clouds,
%
prec.,
mm/h
press.,
hPa
HPBL,
m
4 march, thu
thu400:00−2w49780 0.0 1021285
03:00−2wsw510800 0.0 1021325
06:00−1wsw7137816 0.0 1020445
09:00+1wsw814678 0.0 1018707
12:00+5wsw913500 0.0 10161129
15:00+6wsw1014490 0.0 10141254
18:00+4sw815590 0.0 1012813
21:00+3sw818710 0.0 1011666
5 march, fri
fri500:00+3sw9197751 0.0 1010695
03:00+2wsw9178374 0.0 1010635
06:00+3sw8149098 0.1 1009554
09:00+4wsw8138799 0.3 1010783
12:00+4wsw71185100 0.0 1011799
15:00+5wnw7983100 0.3 1012759
18:00+3wnw3588100 0.1 1013396
21:00+2nne1197100 0.7 1014102
6 march, sat
sat600:00+1ne3497100 0.6 1013140
03:000ne4798100 2.9 1012243
06:00−1ne61097100 3.9 1011427
09:00−1ne6996100 5.7 1011522
12:00−1nne5898100 1.2 1012536
15:00−1n5793100 2.2 1013571
18:00−2nw2397100 0.1 101499
21:00−4nw8139298 0.8 1017668
7 march, sun
sun700:00−6wnw6128363 0.0 1018434
03:00−6wnw6129041 0.0 1019554
06:00−6wnw5118534 0.0 1021495
09:00−5wnw697617 0.0 1022727
12:00−2wsw69690 0.0 10211095
15:00−1wsw8126437 0.0 10181263
18:00−1sw71463100 0.0 1016697
21:00−2wsw8166595 0.0 1015751
8 march, mon
mon800:00−2wsw816680 0.0 1014667
03:00−2wsw8157343 0.0 1012642
06:00−2sw8167868 0.0 1011582
09:00−1wsw9147576 0.0 1010966
12:00+1w91572100 0.0 10101449
15:00+2w91374100 0.1 10101322
18:000w4109598 0.1 1011477
21:00−1w259799 0.3 1013209